This demonstration page uses our WeatherBlox Daily Observations layout. Learn more.

Left ArrowRight Arrow

36.17497, -115.13722

Hourly Observations for December 10, 2018

Temp ( °F °C ) Dew Point ( °F °C ) Humidity (%) Winds ( mph kmh ) Pressure ( in mb ) Visibility ( mi km ) Precip ( " mm )
12:53 am 00:53 Clear 45 7.2 35 1.7 68 68 NNW 3 6 30.3 1026 10 16.0934 0 0
1:53 am 01:53 Clear 45 7.2 35 1.7 68 68 NW 6 9 30.29 1026 10 16.0934 0 0
2:53 am 02:53 Clear 45 7.2 34 1.1 66 66 WNW 3 6 30.28 1025 10 16.0934 0 0
3:53 am 03:53 Clear 44 6.7 34 1.1 68 68 Calm 30.27 1025 10 16.0934 0 0
4:53 am 04:53 Clear 44 6.7 34 1.1 68 68 WNW 5 7 30.28 1025 10 16.0934 0 0
5:53 am 05:53 Clear 43 6.1 34 1.1 71 71 NW 6 9 30.28 1025 10 16.0934 0 0
6:53 am 06:53 Sunny 43 6.1 33 0.6 68 68 NNW 6 9 30.29 1026 10 16.0934 0 0
7:53 am 07:53 Sunny 45 7.2 34 1.1 66 66 NW 5 7 30.29 1026 10 16.0934 0 0
8:53 am 08:53 Sunny 47 8.3 35 1.7 63 63 Calm 30.29 1026 10 16.0934 0 0
9:53 am 09:53 Sunny 50 10 35 1.7 57 57 SSE 6 9 30.29 1026 10 16.0934 0 0
10:53 am 10:53 Sunny 56 13.3 31 -0.6 39 39 E 6 9 30.25 1025 10 16.0934 0 0
11:53 am 11:53 Sunny 56 13.3 31 -0.6 39 39 E 6 9 30.22 1023 10 16.0934 0 0
12:53 pm 12:53 Sunny 59 15 29 -1.7 32 32 ESE 9 15 30.18 1022 10 16.0934 0 0
1:53 pm 13:53 Sunny 60 15.6 27 -2.8 28 28 ESE 10 17 30.15 1021 10 16.0934 0 0
2:53 pm 14:53 Sunny 59 15 27 -2.8 29 29 ESE 9 15 30.14 1021 10 16.0934 0 0
3:53 pm 15:53 Sunny 57 13.9 28 -2.2 33 33 ESE 7 11 30.15 1021 10 16.0934 0 0
4:53 pm 16:53 Clear 56 13.3 28 -2.2 34 34 ESE 8 13 30.14 1021 10 16.0934 0 0
5:53 pm 17:53 Clear 54 12.2 29 -1.7 38 38 ESE 5 7 30.16 1021 10 16.0934 0 0
6:53 pm 18:53 Clear 54 12.2 29 -1.7 38 38 Calm 30.16 1021 10 16.0934 0 0
7:53 pm 19:53 Clear 53 11.7 30 -1.1 41 41 NNW 5 7 30.16 1021 10 16.0934 0 0
8:53 pm 20:53 Clear 52 11.1 31 -0.6 45 45 N 5 7 30.16 1022 10 16.0934 0 0
9:53 pm 21:53 Clear 52 11.1 30 -1.1 43 43 NNW 5 7 30.18 1022 10 16.0934 0 0
10:53 pm 22:53 Clear 51 10.6 30 -1.1 44 44 NNW 6 9 30.15 1021 10 16.0934 0 0
11:53 pm 23:53 Clear 51 10.6 31 -0.6 46 46 WNW 5 7 30.16 1021 10 16.0934 0 0

Powered by AerisWeather